Regional Weather Roundup
Issued by NWS

Home | Current Version | Previous Version | Graphics & Text | Print | Product List | Glossary On
Versions: 1 2 3 4 5 6 7 8 9 10 11 12 13 14 15 16 17 18 19 20 21 22 23 24 25 26 27 28 29 30 31 32 33 34 35 36 37 38 39 40 41 42 43 44 45 46 47 48 49 50
992
ASUS43 KMKX 110300
RWRWI

WISCONSIN REGIONAL WEATHER ROUNDUP
NATIONAL WEATHER SERVICE MILWAUKEE/SULLIVAN WI
900 PM CST SAT DEC 10 2016

NOTE: "FAIR" INDICATES FEW OR NO CLOUDS BELOW 12,000 FEET WITH NO
SIGNIFICANT WEATHER AND/OR OBSTRUCTIONS TO VISIBILITY.

WIZ001-002-006>008-014>016-023>028-110400-
NORTHWEST WISCONSIN

CITY           SKY/WX    TMP DP  RH WIND       PRES   REMARKS
SUPERIOR ARPT  PTCLDY     7   3  85 CALM      30.28F
ASHLAND        CLOUDY     5   1  83 CALM      30.28F
HAYWARD        CLOUDY    10   3  73 SE5       30.22F WCI   2
SIREN          FLURRIES  11   3  69 SE5       30.23F WCI   3
CUMBERLAND     LGT SNOW  10   5  79 SE5       30.20F WCI   2
RICE LAKE      LGT SNOW  12   7  81 SE7       30.23F WCI   1
CHETEK         LGT SNOW  11   6  79 SE6       30.23F WCI   2
LADYSMITH      CLOUDY    12   5  73 SE3       30.26S
EAU CLAIRE     NOT AVBL
MENOMONIE      LGT SNOW  14  10  87 E6        30.24F WCI   5
NEW RICHMOND   LGT SNOW  12   7  82 E5        30.22F WCI   4
OSCEOLA        LGT SNOW  13   8  83 E6        30.26F WCI   3
$$

WIZ003>005-009-010-017-018-110400-
NORTH CENTRAL WISCONSIN

CITY           SKY/WX    TMP DP  RH WIND       PRES   REMARKS
MANITOWISH WTR CLOUDY    -3  -5  90 CALM      30.21F
ARBOR VITAE    CLOUDY     2  -1  83 CALM      30.21F
WOODRUFF       CLOUDY     2  -1  83 CALM      30.21F
RHINELANDER    CLOUDY     8   2  76 CALM      30.22F
EAGLE RIVER    CLOUDY     1  -4  80 CALM      30.22F
LAND O LAKES   CLOUDY    -2  -6  85 CALM      30.23S
PHILLIPS       CLOUDY     8   2  79 CALM      30.22S
TOMAHAWK       CLOUDY     8   2  80 CALM      30.23F
MEDFORD        LGT SNOW   9   5  83 CALM      30.21F
MERRILL        CLOUDY    10   3  72 CALM      30.25F
$$

WIZ029-030-035-036-043>047-110400-
CENTRAL WISCONSIN

CITY           SKY/WX    TMP DP  RH WIND       PRES   REMARKS
WAUSAU         LGT SNOW  10   6  84 E5        30.24F FOG     WCI   2
MOSINEE        LGT SNOW  10  10 100 E3        30.25F
MARSHFIELD     LGT SNOW  13   9  84 SE6       30.22F FOG     WCI   4
STEVENS POINT  MIX PCPN  11   9  88 CALM      30.27F
WAUPACA        LGT SNOW  17  13  82 CALM      30.30F
WAUTOMA        LGT SNOW  15  13  91 E3        30.29F FOG
WISC RAPIDS    LGT SNOW  14  12  92 E5        30.27F FOG     WCI   6
CAMP DOUGLAS   LGT SNOW  16  12  86 E6        30.24F FOG     WCI   7
$$

WIZ011>013-019>022-031-037>040-048>050-110400-
NORTHEAST WISCONSIN

CITY           SKY/WX    TMP DP  RH WIND       PRES   REMARKS
ANTIGO         CLOUDY     9   2  74 CALM      30.23F
SHAWANO        CLOUDY    16   6  63 CALM      30.31F
OCONTO         CLOUDY    12   8  83 CALM      30.32F
STURGEON BAY   PTCLDY    15   8  73 CALM      30.32F
GREEN BAY      CLOUDY    19  10  68 SW5       30.31F WCI  12
MANITOWOC      NOT AVBL
APPLETON       LGT SNOW  16  10  79 VRB5      30.27F WCI   9
CLINTONVILLE   LGT SNOW  18  10  73 SW5       30.30F WCI  11
OSHKOSH        LGT SNOW  17  13  84 CALM      30.29F FOG
$$

WIZ032>034-041-042-053>061-110400-
SOUTHWEST WISCONSIN

CITY           SKY/WX    TMP DP  RH WIND       PRES   REMARKS
LA CROSSE      LGT SNOW  17  13  84 E5        30.24F FOG     WCI  10
SPARTA         LGT SNOW  16  14  93 E5        30.25F WCI   9
VIROQUA        CLOUDY    16  14  93 E8        30.19F WCI   5
BOSCOBEL       LGT SNOW  20  16  84 NE5       30.24F FOG     WCI  13
PRAIRIE DU CHI LGT SNOW  21  17  84 E6        30.23F WCI  13
PLATTEVILLE    CLOUDY    21  20  98 E8        30.22F WCI  11
$$

WIZ056-057-062-063-064-067-068-110400-
SOUTH CENTRAL WISCONSIN

CITY           SKY/WX    TMP DP  RH WIND       PRES   REMARKS
REEDSBURG      LGT SNOW  17  16  95 CALM      30.26F
BARABOO/DELLS  LGT SNOW  17  15  90 E3        30.26F VSB 1
LONE ROCK      LGT SNOW  19  16  88 E8        30.26F VSB 1   WCI   9
MINERAL POINT  LGT SNOW  21  21 100 SE8       30.21F WCI  12
MADISON        LGT SNOW  19  16  88 SE9       30.26F VSB 1   WCI   8
MIDDLETON      CLOUDY    21  19  90 SE5       30.27F WCI  15
WATERTOWN      LGT SNOW  19  19 100 SE5       30.29F WCI  13
MONROE         LGT SNOW  21  19  93 SE12      30.24F WCI   9
JANESVILLE     LGT SNOW  21  21 100 SE9       30.27F WCI  11
$$

WIZ051-052-058>065-066-070>072-110400-
SOUTHEAST WISCONSIN

CITY           SKY/WX    TMP DP  RH WIND       PRES   REMARKS
MILWAUKEE      LGT SNOW  22  17  81 S6        30.32F WCI  14
WAUKESHA       LGT SNOW  18  16  93 S6        30.31F WCI   9
MILWAUKEE/TIMM LGT SNOW  19  16  86 CALM      30.33F
RACINE         LGT SNOW  21  18  88 S3        30.34F FOG
BURLINGTON     LGT SNOW  24  23  94 CALM      30.31S
KENOSHA        LGT SNOW  21  18  88 S5        30.32F FOG     WCI  15
FOND DU LAC    LGT SNOW  18  13  80 SE3       30.30F
SHEBOYGAN      LGT SNOW  18  13  80 CALM      30.31F
WEST BEND      LGT SNOW  19  19 100 CALM      30.30F
JUNEAU         LGT SNOW  18  16  90 SE5       30.29F WCI  11
$$

LSZ147-162-110400-
LAKE SUPERIOR

STATION/POSITION TIME  TEMP    WIND        PRES    WAVE
                       AIR SEA DIR/SP/G            HT/PER
                 (UTC) (F)     (DEG/KT/KT) (MB)    (FT/S)
DEVILS ISLAND    0200   13     190/  9/ 15 1027.3F
PORT WING        0240    4     120/  2/  5 1025.7F
SAXON HARBOR     0240    2     190/  5/  6 1026.1S
$$

LMZ867-665-643>646-110400-
LAKE MICHIGAN

STATION/POSITION TIME  TEMP    WIND        PRES    WAVE
                       AIR SEA DIR/SP/G            HT/PER
                 (UTC) (F)     (DEG/KT/KT) (MB)    (FT/S)
CHAMBERS ISLAND  0240   17     240/  6/  8 1026.1F
NORTHPORT PIER   0240   16      CALM  /  3 1026.4F
SISTER BAY       0220   19     200/  8/  9   N/A
ALGOMA LAKESHORE 0136             CALM       N/A
KEWAUNEE LAKESHO 0230   18     310/  1/  3 1026.5F
SHEBOYGAN LAKESH 0200   18     270/  4/  5 1028.4F
PORT WASHINGTON  0230   21     260/  3/  4 1027.8F
KENOSHA   LAKESH 0200   21     210/  6/  7 1027.4
$$

TC  - TEMPERATURE IN CELSIUS
VSB - VISIBILITY IN STATUTE MILES
WCI - WIND CHILL INDEX
HX  - HEAT INDEX





USA.gov is the U.S. government's official web portal to all federal, state and local government web resources and services.